Satellite-Ground Cal/Val Site Overpasses Predictions

Prediction of Satellite NPP Overpassing Cal/Val Site: Antarctic Dome C

Ground Cal/Val Site Location: Latitude: -75.10, Longitude: 123.35; Satellite-Ground Site NADIR distance within 100 km.

Table of predicted overpasses for the next 14.0 days since TLE Epoch: 4/28/2012
Interval Starting Time Ending Time Minimum Distance Time Minimum Distance (km)
1 04/28/2012 07:43:09 04/28/2012 07:43:28 04/28/2012 07:43:18 74.82
2 04/29/2012 07:24:15 04/29/2012 07:24:43 04/29/2012 07:24:29 33.01
3 05/01/2012 15:06:41 05/01/2012 15:06:48 05/01/2012 15:06:45 96.59
4 05/02/2012 14:47:39 05/02/2012 14:48:08 05/02/2012 14:47:53 15.04
5 05/04/2012 07:30:28 05/04/2012 07:30:57 05/04/2012 07:30:43 3.74
6 05/07/2012 14:53:53 05/07/2012 14:54:21 05/07/2012 14:54:07 21.55
7 05/08/2012 14:35:10 05/08/2012 14:35:25 05/08/2012 14:35:18 85.56
8 05/09/2012 07:36:42 05/09/2012 07:37:09 05/09/2012 07:36:55 39.46


NCC Satellite Cal/Val Overpasses Prediction Service
